Regional Weather Roundup
Issued by NWS

Home | Current Version | Previous Version | Graphics & Text | Print | Product List | Glossary On
Versions: 1 2 3 4 5 6 7 8 9 10 11 12 13 14 15 16 17 18 19 20 21 22 23 24 25 26 27 28 29 30 31 32 33 34 35 36 37 38 39 40 41 42 43 44 45 46 47 48 49 50
972
ASUS43 KLOT 281009
RWRIL

ILLINOIS REGIONAL WEATHER ROUNDUP
NATIONAL WEATHER SERVICE CHICAGO/ROMEOVILLE IL
500 AM CDT WED JUN 28 2017

NOTE: "FAIR" INDICATES FEW OR NO CLOUDS BELOW 12,000 FEET WITH NO
SIGNIFICANT WEATHER AND/OR OBSTRUCTIONS TO VISIBILITY.

* THESE STATIONS ARE NOT UNDER NWS QUALITY CONTROL. THEY ALSO MAY NOT
  REPORT WEATHER SUCH AS PRECIPITATION OR FOG.

ILZ001-002-007-009-015-016-024-281100-
NORTHWEST ILLINOIS

CITY           SKY/WX    TMP DP  RH WIND       PRES   REMARKS
MOLINE         CLOUDY    65  53  65 S10       29.89F
STERLING*      MOCLDY    62  51  67 SE7       29.93F
SAVANNA*       CLOUDY    61  52  71 S9        29.89F
$$

ILZ003-004-008-010-011-017-018-281100-
NORTH CENTRAL ILLINOIS

CITY           SKY/WX    TMP DP  RH WIND       PRES   REMARKS
ROCKFORD       CLOUDY    63  48  58 S14       29.96F
FREEPORT*      MOCLDY    61  49  65 S13       29.94F
ROCHELLE*      CLOUDY    60  49  66 S13       29.97F
DE KALB*       MOCLDY    58  49  72 S10       30.00S
PERU*          PTCLDY    59  49  69 S8        29.99S
$$

ILZ005-006-012>014-019>023-281100-
NORTHEAST ILLINOIS

CITY           SKY/WX    TMP DP  RH WIND       PRES   REMARKS
CHICAGO-OHARE  CLOUDY    61  47  59 S9        30.00S
CHICAGO-MIDWAY CLOUDY    63  48  58 S8        30.02R
AURORA         CLOUDY    59  50  72 S10       30.00F
LANSING*       CLEAR     57  47  69 S7        30.03S
JOLIET*        CLOUDY    60  50  70 SE6       30.01F
WAUKEGAN       CLOUDY    59  48  67 S8        29.99R
DUPAGE AIRPORT CLOUDY    57  51  80 S7        29.99F
WHEELING       CLOUDY    61  49  64 S9        30.01S
MORRIS*        CLOUDY    59  49  68 S9        29.99F
ROMEOVILLE*    CLOUDY    59  47  64 S9        30.01F
$$

LMZ740>746-281100-
SOUTHERN LAKE MICHIGAN

STATION/POSITION SKY/WX   TEMP    WIND        PRES    VSBY  WAVE
                          AIR SEA DIR/SP/G                  HT/PER
                          (F)     (DEG/KT/KT) (MB)    (MI)  (FT/S)
SOUTHERN BUOY              63 61  180/ 14/ 16 1015.7S         2/ 4
WILMETTE HARBOR            65 63  180/ 12/ 16   N/A           2/ 3
HARRISON CRIB              65     190/ 14/ 15   N/A
BURNHAM HARBOR             62                   N/A
CALUMET HARBOR             62     180/  7/ 11 1016.1R
BURNS HARBOR               62     180/  7/ 15 1017.3S
MICHIGAN CITY              61     160/ 11/ 14   N/A
MICHIGAN CITY 6N           62 66  180/ 14/ 16   N/A           1/ 2
ST. JOSEPH                 65 69  190/ 16/ 19 1017.1          2/ 3
$$

ILZ025>027-034>036-040-047-049-050-058-095>099-281100-
WEST-CENTRAL ILLINOIS

CITY           SKY/WX    TMP DP  RH WIND       PRES   REMARKS
QUINCY         CLOUDY    69  61  75 S14G21    29.94S
GALESBURG*     CLOUDY    62  55  76 SE7       29.94F
MACOMB*        CLOUDY    65  56  75 S9        29.96F
JACKSONVILLE*  PTCLDY    65  55  70 S10       29.98S
PITTSFIELD*    CLOUDY    67  60  76 S9        29.98S
$$

ILZ028>032-037-038-041>044-048-051>054-059>061-281100-
CENTRAL ILLINOIS

CITY           SKY/WX    TMP DP  RH WIND       PRES   REMARKS
PONTIAC        CLOUDY    60  51  71 S12       30.01F
BLOOMINGTON    CLOUDY    56  51  84 S8        30.03S
DECATUR        CLEAR     60  51  72 S8        30.04R
PEORIA         CLOUDY    63  53  70 S10       29.98F
LACON*         PTCLDY    61  51  70 S9        29.96F
LINCOLN*       CLOUDY    60  54  79 S6        30.01S
SPRINGFIELD    CLOUDY    65  54  67 S12       30.00F
TAYLORVILLE    CLOUDY    58  51  79 S8        30.03R
$$

ILZ033-039-045-046-055>057-062-063-281100-
EAST-CENTRAL ILLINOIS

CITY           SKY/WX    TMP DP  RH WIND       PRES   REMARKS
CHAMPAIGN      CLEAR     59  48  67 SE8       30.05S
RANTOUL*       PTCLDY    55  50  84 SE3       30.05S
MATTOON        CLEAR     58  51  78 S7        30.04F
PARIS*         CLEAR     53  50  90 SE5       30.08R
$$

ILZ079-100>102-281100-
SOUTHWEST ILLINOIS

CITY           SKY/WX    TMP DP  RH WIND       PRES   REMARKS
ALTON          CLOUDY    58  56  94 SE6       30.02S
BELLEVILLE     CLEAR     58  55  91 CALM      30.04S
CAHOKIA*       MOCLDY    63  56  78 S6        30.01S
SPARTA*        PTCLDY    59  55  88 SE6       30.05S
$$

ILZ064>066-069>071-074>076-080>082-084>086-088>090-092>094-281100-
SOUTH-CENTRAL ILLINOIS

CITY           SKY/WX    TMP DP  RH WIND       PRES   REMARKS
CARBONDALE     CLOUDY    59  57  93 CALM      30.06R
CAIRO*         CLEAR     61  58  89 CALM      30.06R
EFFINGHAM*     CLEAR     57  53  86 SE5       30.07S
MARION         CLEAR     61  57  88 CALM      30.08R
MT. VERNON     CLEAR     54  53  97 CALM      30.07R
CENTRALIA*     CLEAR     62  55  77 S6        30.05R
SALEM*         CLEAR     62  52  71 SE3       30.06R
METROPOLIS*    CLEAR     61  58  91 CALM      30.07R
$$

ILZ067-068-072-073-078-083-087-091-281100-
SOUTHEAST ILLINOIS

CITY           SKY/WX    TMP DP  RH WIND       PRES   REMARKS
LAWRENCEVILLE  CLEAR     57  50  77 CALM      30.09R
FLORA*         CLEAR     54  51  88 SE5       30.07R
FAIRFIELD*     CLEAR     56  53  92 CALM      30.06R
HARRISBURG*    CLEAR     56  54  95 NE3       30.08R
ROBINSON*      CLEAR     50  48  93 CALM      30.09R
CARMI*         CLEAR     55  54  98 CALM      30.08R
$$

ABBREVIATIONS USED IN REMARKS
   TC - TEMPERATURE IN CELSIUS
  WCI - WIND CHILL INDEX
   HX - HEAT INDEX
  VSB - VISIBILITY
$$





USA.gov is the U.S. government's official web portal to all federal, state and local government web resources and services.